Location: Unspecified
(0.0000°N, 0.0000°E)
Time: 20:16:36
(UTC+00:00)

KKS-1 - Pass Details

Date: 08 December 2017
Orbit: 637 x 651 km, 98.3° (Epoch: 22 January)

Event Time Altitude Azimuth Distance (km) Brightness Sun altitude
Rises 04:25:31 0° 151° (SSE) 2,966 ? -19.8°
Reaches altitude 10° 04:27:55 10° 141° (SE) 2,054 ? -19.3°
Maximum altitude 04:31:54 32° 78° (ENE) 1,111 ? -18.4°
Drops below altitude 10° 04:35:53 10° 15° (NNE) 2,046 ? -17.5°
Sets 04:38:16 0° 5° (N) 2,953 ? -16.9°
